Torna al catalogo

SHIJIAN 6 01A

SJ-6 01A

AttivoScienzaSSO
NORAD 28413·PAYLOAD·🇨🇳 China

Lanciato Sep 8, 2004 da Taiyuan Satellite Launch Center

Loading…

Prossimi Passaggi (prossime 24 ore)

TLE

AggiornatoSource: Space-Track

Epoca: Sep 13, 2026, 15:51 UTC

1 28413U 04035A   26256.66047477  .00005226  00000-0  25241-3 0  9994
2 28413  97.5817 284.0498 0006060 172.5250 187.6075 15.19075605200898

Traccia SHIJIAN 6 01A in tempo reale con AllMySat

Download on the App Store